Louisville Bowman, KY

10:14 PM EST on December 08, 2019 (GMT -0500)
Bowman

Weather History for KLOU - May, 2019

Change the Weather History Date:

Friday, May 3, 2019

  Actual Average Record
Temperature  
Mean Temperature 69 °F 62 °F  
Max Temperature 75 °F 73 °F 93 °F (1959)
Min Temperature 63 °F 52 °F 35 °F (1961)
Degree Days  
Heating Degree Days 0 4  
Month to date heating degree days 0 13  
Since 1 July heating degree days 4054 4204  
Cooling Degree Days 4 2  
Month to date cooling degree days 16 5  
Year to date cooling degree days 33 39  
Growing Degree Days 18 (Base 50)    
Moisture  
Dew Point 61 °F    
Average Humidity 81    
Maximum Humidity 100    
Minimum Humidity 61    
Precipitation  
Precipitation 1.23 in 0.18 in 1.38 in (1983)
Month to date precipitation 1.58 0.56  
Year to date precipitation 24.99 15.36  
Sea Level Pressure  
Sea Level Pressure 29.96 in    
Wind  
Wind Speed 5 mph (NNW)    
Max Wind Speed 12 mph    
Max Gust Speed 17 mph    
Visibility 7 miles    
Events Rain    
T = Trace of Precipitation, MM = Missing Value Source: NWS Daily Summary

Daily Weather History Graph

Daily Weather History Graph

Search for Another Location

Airport or City:

Astronomy

May. 03, 2019 Rise Set
Actual Time 6:44 AM EDT 8:35 PM EDT
Civil Twilight 6:15 AM EDT 9:04 PM EDT
Nautical Twilight 5:40 AM EDT 9:39 PM EDT
Astronomical Twilight 5:03 AM EDT 10:16 PM EDT
Moon 6:22 AM EDT (5/3) 7:24 PM EDT (5/3)
Length of Visible Light 14h 48m
Length of Day
13h 51m
Waning Crescent, 2% of the Moon is Illuminated
May 3
Waning Crescent
May 4
New
May 11
First Quarter
May 18
Full
May 26
Last Quarter

Hourly Weather History & Observations

Time (EDT) Temp. Dew Point Humidity Pressure Visibility Wind Dir Wind Speed Gust Speed Precip Events Conditions
12:53 AM 64.9 °F 62.1 °F 90% 30.01 in 10.0 mi East 3.5 mph - N/A   Mostly Cloudy
1:53 AM 64.9 °F 62.1 °F 90% 29.99 in 10.0 mi Calm Calm - N/A   Mostly Cloudy
2:53 AM 64.9 °F 62.1 °F 90% 29.97 in 10.0 mi ESE 5.8 mph - N/A   Scattered Clouds
3:53 AM 64.0 °F 62.1 °F 93% 29.96 in 4.0 mi SE 8.1 mph - 0.05 in Rain Heavy Rain
4:53 AM 64.0 °F 62.1 °F 93% 29.96 in 10.0 mi Variable 3.5 mph - 0.09 in Rain Light Rain
5:27 AM 64.0 °F 63.0 °F 96% 29.99 in 4.0 mi South 3.5 mph - 0.04 in Rain Rain
5:33 AM 64.0 °F 63.0 °F 96% 29.98 in 1.8 mi Calm Calm - 0.10 in Rain Heavy Rain
5:46 AM 64.0 °F 62.1 °F 93% 29.98 in 3.0 mi Variable 4.6 mph - 0.17 in Rain Rain
5:53 AM 64.0 °F 62.1 °F 93% 29.97 in 4.0 mi Calm Calm - 0.19 in Rain Rain
6:00 AM 64.0 °F 63.0 °F 96% 30.00 in 2.5 mi Variable 3.5 mph - 0.05 in Rain Heavy Rain
6:08 AM 64.0 °F 63.0 °F 96% 29.99 in 1.2 mi Calm Calm - 0.15 in Rain Heavy Rain
6:14 AM 64.0 °F 62.1 °F 93% 29.99 in 2.0 mi Calm Calm - 0.18 in Rain Heavy Rain
6:24 AM 64.0 °F 62.1 °F 93% 29.98 in 3.0 mi NNE 3.5 mph - 0.22 in Rain Heavy Rain
6:53 AM 63.0 °F 62.1 °F 97% 29.96 in 4.0 mi North 5.8 mph - 0.33 in Rain Rain
7:21 AM 63.0 °F 62.1 °F 97% 29.98 in 5.0 mi North 5.8 mph - 0.06 in Rain Rain
7:48 AM 62.6 °F 62.6 °F 100% 29.99 in 2.5 mi NNW 4.6 mph - 0.22 in Rain Heavy Rain
7:53 AM 63.0 °F 61.0 °F 93% 29.98 in 2.0 mi North 4.6 mph - 0.24 in Rain Rain
8:11 AM 63.0 °F 61.0 °F 93% 29.99 in 2.0 mi North 6.9 mph - 0.08 in Rain Rain
8:53 AM 63.0 °F 61.0 °F 93% 29.99 in 2.0 mi ENE 4.6 mph - 0.27 in Rain Heavy Rain
9:11 AM 63.0 °F 61.0 °F 93% 29.98 in 6.0 mi ENE 8.1 mph - 0.04 in Rain Rain
9:53 AM 64.0 °F 62.1 °F 93% 29.94 in 10.0 mi East 11.5 mph - 0.05 in Rain Light Rain
10:53 AM 66.0 °F 62.1 °F 87% 29.96 in 10.0 mi NW 4.6 mph - 0.01 in   Mostly Cloudy
11:02 AM 66.0 °F 62.1 °F 87% 29.97 in 10.0 mi WNW 5.8 mph - N/A   Overcast
11:53 AM 66.0 °F 62.1 °F 87% 29.97 in 10.0 mi NNW 4.6 mph - N/A   Overcast
12:18 PM 66.9 °F 63.0 °F 87% 29.98 in 10.0 mi Calm Calm - N/A   Overcast
12:25 PM 66.9 °F 62.1 °F 84% 29.97 in 10.0 mi Calm Calm - N/A   Overcast
12:36 PM 68.0 °F 62.1 °F 81% 29.97 in 10.0 mi Calm Calm - N/A   Overcast
12:53 PM 69.1 °F 62.1 °F 78% 29.95 in 10.0 mi ENE 3.5 mph - N/A   Overcast
1:53 PM 71.1 °F 63.0 °F 75% 29.94 in 10.0 mi Calm Calm - N/A   Overcast
2:18 PM 70.0 °F 62.1 °F 76% 29.95 in 10.0 mi West 3.5 mph - N/A   Overcast
2:53 PM 71.1 °F 60.1 °F 68% 29.94 in 10.0 mi WNW 6.9 mph - N/A   Overcast
3:53 PM 72.0 °F 60.1 °F 66% 29.93 in 10.0 mi NNW 6.9 mph - N/A   Overcast
4:53 PM 73.0 °F 60.1 °F 64% 29.92 in 10.0 mi West 5.8 mph - N/A   Mostly Cloudy
5:53 PM 73.9 °F 59.0 °F 59% 29.91 in 10.0 mi NW 6.9 mph - N/A   Scattered Clouds
6:53 PM 72.0 °F 57.9 °F 61% 29.92 in 10.0 mi WNW 3.5 mph - N/A   Mostly Cloudy
7:53 PM 70.0 °F 59.0 °F 68% 29.92 in 10.0 mi WNW 5.8 mph - N/A   Scattered Clouds
8:53 PM 68.0 °F 60.1 °F 76% 29.94 in 10.0 mi West 3.5 mph - N/A   Overcast
9:53 PM 68.0 °F 61.0 °F 78% 29.94 in 10.0 mi WNW 3.5 mph - N/A   Overcast
10:53 PM 66.9 °F 60.1 °F 79% 29.95 in 10.0 mi NNW 3.5 mph - N/A   Overcast
11:34 PM 66.9 °F 60.1 °F 79% 29.96 in 10.0 mi NNW 4.6 mph - N/A   Overcast
11:53 PM 66.0 °F 59.0 °F 78% 29.94 in 10.0 mi NNW 5.8 mph - N/A   Mostly Cloudy